Weather reports worldwide

Advertisment
Ancona, Italy (16190): temperature & dewpoint: 15.01.2018 04:00:00 - 21.01.2018 04:00:00 (CET)Ancona, Italy (16190): reduced air pressure: 15.01.2018 04:00:00 - 21.01.2018 04:00:00 (CET)Ancona, Italy (16190): precipitation: 15.01.2018 04:00:00 - 21.01.2018 04:00:00 (CET)
Date & Time tt [°C] td [°C] ppp [hPa] rr [mm]
21.01.2018 04:00:00 - - - -
21.01.2018 03:00:00 7,8 2,4 999,2 -
21.01.2018 02:00:00 7,2 4,1 1000,0 -
21.01.2018 01:00:00 7,0 4,4 1001,4 -
21.01.2018 00:00:00 5,8 4,7 1002,4 -
20.01.2018 23:00:00 5,5 4,9 1002,7 -
20.01.2018 22:00:00 5,3 4,7 1003,5 -
20.01.2018 21:00:00 5,8 5,1 1004,4 -
20.01.2018 20:00:00 5,1 4,0 1005,1 -
20.01.2018 19:00:00 5,4 3,5 1005,8 0,0
20.01.2018 18:00:00 6,4 4,2 1006,6 -
20.01.2018 17:00:00 6,9 4,9 1007,0 -
20.01.2018 16:00:00 7,3 5,4 1006,9 -
20.01.2018 15:00:00 7,4 5,7 1006,9 -
20.01.2018 14:00:00 6,9 5,5 1007,7 -
20.01.2018 13:00:00 6,8 5,3 1008,4 0,0
20.01.2018 12:00:00 7,4 5,4 1009,1 -
20.01.2018 11:00:00 8,3 5,4 1009,4 -
20.01.2018 10:00:00 8,1 6,0 1009,0 -
20.01.2018 09:00:00 6,2 4,8 1008,6 -
20.01.2018 08:00:00 5,1 3,9 1008,7 -
20.01.2018 07:00:00 5,6 4,4 1008,3 0,0
20.01.2018 06:00:00 5,7 4,8 1007,9 -
20.01.2018 05:00:00 5,5 4,9 1007,5 -
20.01.2018 04:00:00 6,1 5,3 1007,3 -
20.01.2018 03:00:00 6,0 5,2 1007,6 -
20.01.2018 02:00:00 6,9 6,1 1007,5 -
20.01.2018 01:00:00 7,3 5,6 1007,4 -
20.01.2018 00:00:00 7,1 5,1 1007,6 -
19.01.2018 23:00:00 7,3 4,7 1006,8 -
19.01.2018 22:00:00 7,4 5,4 1006,5 -
19.01.2018 21:00:00 8,0 6,1 1006,1 -
19.01.2018 20:00:00 10,8 4,4 1005,6 -
19.01.2018 19:00:00 12,3 6,5 1004,6 0,0
19.01.2018 18:00:00 12,8 5,2 1004,2 -
19.01.2018 17:00:00 13,4 5,0 1003,5 -
19.01.2018 16:00:00 13,9 5,7 1003,6 -
19.01.2018 15:00:00 14,2 6,2 1003,7 -
19.01.2018 14:00:00 14,3 5,8 1003,9 -
19.01.2018 13:00:00 13,9 5,7 1004,2 0,0
19.01.2018 12:00:00 13,0 4,9 1004,7 -
19.01.2018 11:00:00 13,8 7,7 1005,0 -
19.01.2018 10:00:00 11,8 6,4 1004,9 -
19.01.2018 09:00:00 11,2 4,3 1004,9 -
19.01.2018 08:00:00 10,7 5,4 1005,1 -
19.01.2018 07:00:00 10,6 3,8 1005,5 0,0
19.01.2018 06:00:00 9,5 3,6 1005,8 -
19.01.2018 05:00:00 8,7 2,2 1005,8 -
19.01.2018 04:00:00 9,0 4,2 1006,0 -
19.01.2018 03:00:00 8,4 3,6 1006,7 -
19.01.2018 02:00:00 8,2 1,7 1006,8 -
19.01.2018 01:00:00 8,9 2,2 1007,5 0,0
19.01.2018 00:00:00 7,9 0,8 1008,0 -
18.01.2018 23:00:00 8,5 1,6 1008,3 -
18.01.2018 22:00:00 9,4 0,2 1008,6 -
18.01.2018 21:00:00 9,7 -0,6 1009,1 -
18.01.2018 20:00:00 8,9 -3,1 1008,7 -
18.01.2018 19:00:00 9,6 -3,5 1009,4 0,0
18.01.2018 18:00:00 10,1 -3,0 1009,6 -
18.01.2018 17:00:00 12,3 -3,2 1009,7 -
18.01.2018 16:00:00 12,1 -5,5 1009,7 -
18.01.2018 15:00:00 12,7 -4,1 1010,0 -
18.01.2018 14:00:00 13,3 -4,0 1010,4 -
18.01.2018 13:00:00 13,1 -6,6 1011,1 0,0
18.01.2018 12:00:00 12,6 -6,0 1012,1 -
18.01.2018 11:00:00 10,7 -6,8 1013,2 -
18.01.2018 10:00:00 9,9 -8,4 1013,3 -
18.01.2018 09:00:00 6,7 -9,4 1013,3 -
18.01.2018 08:00:00 6,5 -10,9 1012,4 -
18.01.2018 07:00:00 5,7 -11,1 1012,1 0,0
18.01.2018 06:00:00 6,7 -12,6 1011,8 -
18.01.2018 05:00:00 7,1 -12,8 1011,5 -
18.01.2018 04:00:00 6,5 -11,3 1011,4 -
18.01.2018 03:00:00 6,0 -9,2 1011,3 -
18.01.2018 02:00:00 5,4 -7,3 1010,9 -
18.01.2018 01:00:00 6,5 -1,5 1010,1 0,0
18.01.2018 00:00:00 6,3 -4,3 1009,9 -
17.01.2018 23:00:00 6,7 -1,6 1008,9 -
17.01.2018 22:00:00 6,9 -1,4 1007,9 -
17.01.2018 21:00:00 7,4 -0,4 1006,3 -
17.01.2018 20:00:00 7,9 0,1 1004,5 -
17.01.2018 19:00:00 8,7 -0,5 1002,9 0,0
17.01.2018 18:00:00 9,0 -1,3 1001,1 -
17.01.2018 17:00:00 9,5 -1,1 999,3 -
17.01.2018 16:00:00 9,6 0,9 997,8 -
17.01.2018 15:00:00 7,6 4,9 997,0 -
17.01.2018 14:00:00 5,5 5,1 996,1 -
17.01.2018 13:00:00 5,6 5,3 996,2 0,0
17.01.2018 12:00:00 5,7 5,1 995,5 -
17.01.2018 11:00:00 5,7 5,6 994,8 -
17.01.2018 10:00:00 6,0 5,1 994,5 -
17.01.2018 09:00:00 13,7 6,0 992,7 -
17.01.2018 08:00:00 13,5 5,8 992,3 -
17.01.2018 07:00:00 13,2 7,4 992,7 0,0
17.01.2018 06:00:00 13,1 6,4 993,9 -
17.01.2018 05:00:00 13,1 7,1 994,0 -
17.01.2018 04:00:00 13,7 5,8 994,5 -
17.01.2018 03:00:00 13,7 5,8 995,9 -
17.01.2018 02:00:00 13,7 5,8 997,2 -
17.01.2018 01:00:00 13,5 5,3 998,4 0,0
17.01.2018 00:00:00 13,7 5,8 999,8 -
16.01.2018 23:00:00 13,0 7,2 1000,2 -
16.01.2018 22:00:00 12,9 5,7 1000,8 -
16.01.2018 21:00:00 12,7 6,0 1000,9 -
16.01.2018 20:00:00 12,7 6,9 1000,8 -
16.01.2018 19:00:00 12,4 5,7 1001,5 0,0
16.01.2018 18:00:00 12,3 6,5 1001,7 -
16.01.2018 17:00:00 12,6 6,8 1002,3 -
16.01.2018 16:00:00 13,3 7,5 1002,8 -
16.01.2018 15:00:00 13,3 5,6 1003,3 -
16.01.2018 14:00:00 13,2 5,0 1003,9 -
16.01.2018 13:00:00 13,1 4,9 1005,0 0,0
16.01.2018 12:00:00 11,9 5,5 1006,2 -
16.01.2018 11:00:00 10,3 4,2 1007,5 -
16.01.2018 10:00:00 9,0 5,3 1008,0 -
16.01.2018 09:00:00 8,2 4,5 1008,4 -
16.01.2018 08:00:00 8,1 4,6 1008,3 -
16.01.2018 07:00:00 7,0 4,3 1008,5 0,0
16.01.2018 06:00:00 6,6 4,1 1009,1 -
16.01.2018 05:00:00 6,6 4,2 1010,0 -
16.01.2018 04:00:00 5,8 4,1 1010,3 -
16.01.2018 03:00:00 5,2 4,0 1011,8 -
16.01.2018 02:00:00 5,2 4,1 1012,5 -
16.01.2018 01:00:00 5,1 4,0 1013,3 0,0
16.01.2018 00:00:00 5,6 4,2 1014,3 -
15.01.2018 23:00:00 5,7 4,5 1014,7 -
15.01.2018 22:00:00 5,9 4,7 1015,1 -
15.01.2018 21:00:00 5,8 3,8 1015,4 -
15.01.2018 20:00:00 6,2 3,5 1016,0 -
15.01.2018 19:00:00 6,2 3,3 1016,7 0,0
15.01.2018 18:00:00 5,8 2,7 1017,0 -
15.01.2018 17:00:00 6,6 3,2 1017,0 -
15.01.2018 16:00:00 7,5 4,4 1017,0 -
15.01.2018 15:00:00 7,1 4,4 1017,5 -
15.01.2018 14:00:00 6,8 4,6 1018,2 -
15.01.2018 13:00:00 6,3 5,1 1018,9 0,0
15.01.2018 12:00:00 6,3 4,9 1019,4 -
15.01.2018 11:00:00 6,2 4,7 1019,9 -
15.01.2018 10:00:00 6,1 4,7 1019,5 -
15.01.2018 09:00:00 5,8 5,1 1019,3 -
15.01.2018 08:00:00 5,1 4,5 1019,1 -
15.01.2018 07:00:00 5,2 4,8 1018,7 0,0
15.01.2018 06:00:00 5,0 4,6 1018,4 -
15.01.2018 05:00:00 5,1 4,7 1018,3 -
15.01.2018 04:00:00 5,9 5,3 1018,4 -

tt = temperature
td = dewpoint
ppp = reduced air pressure
rr = precipitation

Next stations